GW5678 Weather Reports


Display with metric or nautical units.
time (UTC)temp
F
wind
direction
speed
MPH
gust
MPH
rain 1hr
in
rain 24hr
in
rain mn
in
humidity
%
barometer
mb
20260510081519 38 98 2.0 3.0 0.00 0.00 0.00 95 1012.6
20260510081015 39 87 2.0 3.0 0.00 0.00 0.00 95 1012.8
20260510080514 39 92 2.0 2.0 0.00 0.00 0.00 95 1012.5
20260510080012 39 115 1.0 2.0 0.00 0.00 0.00 95 1012.8
20260510075509 39 89 0.0 2.0 0.00 0.00 0.00 95 1012.8
20260510075006 39 52 3.0 4.0 0.00 0.00 0.00 95 1012.5
20260510074504 39 101 2.0 2.0 0.00 0.00 0.00 95 1012.5
20260510073959 40 89 3.0 4.0 0.00 0.00 0.00 95 1012.6
20260510073454 40 79 2.0 2.0 0.00 0.00 0.00 95 1012.4
20260510072951 40 63 2.0 2.0 0.00 0.00 0.00 95 1012.5
20260510072448 40 38 0.0 1.0 0.00 0.00 0.00 95 1012.4
20260510071944 40 104 0.0 2.0 0.00 0.00 0.00 95 1012.6
20260510071440 40 81 2.0 3.0 0.00 0.00 0.00 94 1012.5
20260510070938 39 71 3.0 3.0 0.00 0.00 0.00 94 1012.6
20260510070436 40 102 4.0 4.0 0.00 0.00 0.00 94 1012.4
20260510065931 40 109 3.0 3.0 0.00 0.00 0.00 94 1012.2
20260510065428 40 69 2.0 2.0 0.00 0.00 0.00 94 1012.2
20260510064924 41 88 1.0 2.0 0.00 0.00 0.00 94 1012.2
20260510064422 41 84 2.0 4.0 0.00 0.00 0.00 94 1012.0
20260510063918 41 117 2.0 4.0 0.00 0.00 0.00 94 1012.2
20260510063414 41 109 1.0 2.0 0.00 0.00 0.00 94 1012.2
20260510062913 41 89 2.0 4.0 0.00 0.00 0.00 94 1012.4
20260510062407 41 89 1.0 2.0 0.00 0.00 0.00 94 1012.4
20260510061903 41 150 0.0 2.0 0.00 0.00 0.00 93 1012.1
20260510061400 41 84 1.0 3.0 0.00 0.00 0.00 93 1012.3
20260510060855 41 69 1.0 2.0 0.00 0.00 0.00 93 1012.4
20260510060353 41 75 2.0 3.0 0.00 0.00 0.00 92 1012.3
20260510055849 41 91 2.0 2.0 0.00 0.00 0.00 91 1012.2
20260510055349 41 102 2.0 4.0 0.00 0.00 0.00 91 1012.0
20260510054848 41 70 2.0 3.0 0.00 0.00 0.00 91 1012.0
20260510054344 42 100 2.0 2.0 0.00 0.00 0.00 91 1011.9
20260510053839 42 95 2.0 2.0 0.00 0.00 0.00 91 1012.4
20260510053334 42 65 3.0 4.0 0.00 0.00 0.00 91 1012.1
20260510052831 42 87 2.0 3.0 0.00 0.00 0.00 90 1012.2
20260510052327 43 93 3.0 3.0 0.00 0.00 0.00 90 1012.1
20260510051823 43 92 3.0 4.0 0.00 0.00 0.00 90 1012.0
20260510051320 44 82 0.0 2.0 0.00 0.00 0.00 91 1012.1
20260510050817 44 62 1.0 1.0 0.00 0.00 0.00 91 1012.2
20260510050314 44 76 2.0 2.0 0.00 0.00 0.00 90 1012.3
20260510045811 44 76 0.0 1.0 0.00 0.00 0.00 90 1012.2
20260510045308 44 114 0.0 2.0 0.00 0.00 0.00 89 1012.5
20260510044805 44 74 2.0 2.0 0.00 0.00 0.00 89 1012.3
20260510044302 44 73 1.0 2.0 0.00 0.00 0.00 89 1012.4
20260510043758 44 66 2.0 3.0 0.00 0.00 0.00 88 1012.4
20260510043254 44 78 1.0 2.0 0.00 0.00 0.00 87 1012.3
20260510042752 44 86 2.0 2.0 0.00 0.00 0.00 87 1012.3
20260510042247 45 105 1.0 3.0 0.00 0.00 0.00 87 1012.3
20260510041739 45 106 3.0 3.0 0.00 0.00 0.00 86 1012.3
20260510041236 45 120 3.0 4.0 0.00 0.00 0.00 86 1012.5
20260510040733 46 85 2.0 3.0 0.00 0.00 0.00 86 1012.1
20260510040230 46 106 1.0 2.0 0.00 0.00 0.00 85 1012.3
20260510035724 46 92 2.0 3.0 0.00 0.00 0.00 84 1012.3
20260510035221 46 103 3.0 3.0 0.00 0.00 0.00 83 1012.2
20260510034717 47 89 2.0 3.0 0.00 0.00 0.00 82 1012.1
20260510034215 48 97 1.0 3.0 0.00 0.00 0.00 82 1012.3
20260510033710 48 59 2.0 3.0 0.00 0.00 0.00 82 1012.3
20260510033209 48 315 0.0 2.0 0.00 0.00 0.00 82 1012.5
20260510032705 48 266 0.0 2.0 0.00 0.00 0.00 82 1012.3
20260510032200 48 46 2.0 2.0 0.00 0.00 0.00 82 1012.5
20260510031655 48 61 0.0 2.0 0.00 0.00 0.00 81 1012.3
20260510031152 49 66 1.0 2.0 0.00 0.00 0.00 80 1012.2
20260510030647 49 92 1.0 2.0 0.00 0.00 0.00 80 1012.2
20260510030145 49 235 0.0 0.0 0.00 0.00 0.00 80 1012.3
20260510025642 49 80 1.0 2.0 0.00 0.00 0.00 78 1012.1
20260510025139 49 79 1.0 2.0 0.00 0.00 0.00 78 1012.2
20260510024636 50 81 0.0 2.0 0.00 0.00 0.00 77 1011.9
20260510024132 50 95 0.0 2.0 0.00 0.00 0.00 75 1011.9
20260510023627 51 86 2.0 3.0 0.00 0.00 0.00 74 1011.7
20260510023125 51 71 2.0 3.0 0.00 0.00 0.00 73 1011.7
20260510022626 51 34 0.0 0.0 0.00 0.00 0.00 74 1011.7
20260510022120 51 135 0.0 2.0 0.00 0.00 0.00 75 1011.5
20260510021616 51 23 2.0 3.0 0.00 0.00 0.00 75 1011.2
20260510021114 51 58 2.0 3.0 0.00 0.00 0.00 74 1011.4
20260510020608 51 25 3.0 3.0 0.00 0.00 0.00 73 1011.2
20260510020103 52 83 2.0 3.0 0.00 0.00 0.00 71 1011.1
20260510015600 53 107 2.0 3.0 0.00 0.00 0.00 70 1010.9
20260510015056 53 66 0.0 0.0 0.00 0.00 0.00 70 1011.0
20260510014552 53 99 1.0 2.0 0.00 0.00 0.00 67 1011.0
20260510014049 54 84 1.0 2.0 0.00 0.00 0.00 65 1010.7
20260510013543 55 86 1.0 2.0 0.00 0.00 0.00 64 1010.7
20260510013039 56 105 2.0 3.0 0.00 0.00 0.00 62 1010.6
20260510012534 56 269 0.0 1.0 0.00 0.00 0.00 62 1010.3
20260510012031 57 136 1.0 2.0 0.00 0.00 0.00 60 1010.6
20260510011530 57 212 0.0 0.0 0.00 0.00 0.00 58 1010.2
20260510011026 58 63 3.0 4.0 0.00 0.00 0.00 59 1010.2
20260510010523 58 28 2.0 3.0 0.00 0.00 0.00 57 1010.1
20260510010020 59 81 2.0 3.0 0.00 0.00 0.00 55 1010.2
20260510005516 61 97 0.0 2.0 0.00 0.00 0.00 52 1010.2
20260510005014 62 269 0.0 1.0 0.00 0.00 0.00 49 1009.9
20260510004511 62 41 0.0 2.0 0.00 0.00 0.00 47 1009.9
20260510004009 62 43 2.0 2.0 0.00 0.00 0.00 47 1009.7
20260510003505 62 103 0.0 1.0 0.00 0.00 0.00 47 1009.8
20260510003000 63 96 2.0 2.0 0.00 0.00 0.00 46 1009.6
20260510002457 64 84 2.0 3.0 0.00 0.00 0.00 45 1009.4
20260510001953 65 89 3.0 4.0 0.00 0.00 0.00 44 1009.5
20260510001451 66 105 8.0 9.0 0.00 0.00 0.00 41 1009.3
20260510000948 67 110 6.0 7.0 0.00 0.00 0.00 41 1009.2
20260510000444 67 118 4.0 9.0 0.00 0.00 0.00 40 1008.9
20260509235941 68 102 6.0 11.0 0.00 0.00 0.00 39 1008.9
20260509235438 69 104 9.0 13.0 0.00 0.00 0.00 38 1009.1
20260509234934 69 112 8.0 12.0 0.00 0.00 0.00 38 1008.8
20260509234431 70 97 5.0 10.0 0.00 0.00 0.00 39 1008.7
20260509233929 71 85 7.0 9.0 0.00 0.00 0.00 38 1008.7
20260509233426 71 118 11.0 15.0 0.00 0.00 0.00 36 1008.6
20260509232922 72 81 6.0 7.0 0.00 0.00 0.00 40 1008.5
20260509232420 72 78 6.0 7.0 0.00 0.00 0.00 41 1008.8
20260509231915 72 105 5.0 10.0 0.00 0.00 0.00 40 1008.7
20260509231412 72 105 7.0 16.0 0.00 0.00 0.00 38 1008.7
20260509230911 72 95 9.0 15.0 0.00 0.00 0.00 39 1008.5
20260509230407 71 119 7.0 14.0 0.00 0.00 0.00 40 1008.8
20260509225903 71 123 7.0 11.0 0.00 0.00 0.00 41 1008.6
20260509225400 72 120 11.0 14.0 0.00 0.00 0.00 39 1008.7
20260509224855 72 99 10.0 17.0 0.00 0.00 0.00 38 1008.8
20260509224351 73 109 12.0 19.0 0.00 0.00 0.00 37 1008.6
20260509223849 73 105 11.0 18.0 0.00 0.00 0.00 38 1008.7
20260509223345 73 109 10.0 16.0 0.00 0.00 0.00 38 1008.6
20260509222843 72 105 6.0 10.0 0.00 0.00 0.00 41 1008.6
20260509222342 71 89 8.0 9.0 0.00 0.00 0.00 42 1008.6
20260509221838 71 94 7.0 11.0 0.00 0.00 0.00 42 1008.6
20260509221337 71 98 6.0 11.0 0.00 0.00 0.00 42 1008.7
20260509220836 71 80 9.0 14.0 0.00 0.00 0.00 40 1008.7
20260509220333 71 102 7.0 13.0 0.00 0.00 0.00 41 1008.5
20260509215829 71 87 9.0 11.0 0.00 0.00 0.00 41 1008.5
20260509215326 71 99 9.0 12.0 0.00 0.00 0.00 39 1008.3
20260509214822 71 77 11.0 12.0 0.00 0.00 0.00 42 1008.3
20260509214319 72 129 8.0 16.0 0.00 0.00 0.00 42 1008.6
20260509213816 72 116 7.0 11.0 0.00 0.00 0.00 42 1008.6
20260509213312 73 89 5.0 11.0 0.00 0.00 0.00 42 1008.4
20260509212810 72 83 9.0 12.0 0.00 0.00 0.00 42 1008.4
20260509212307 72 97 4.0 9.0 0.00 0.00 0.00 44 1008.4
20260509211802 71 78 6.0 12.0 0.00 0.00 0.00 44 1008.3
20260509211259 71 359 3.0 13.0 0.00 0.00 0.00 44 1008.1
20260509210755 71 106 9.0 12.0 0.00 0.00 0.00 44 1008.2
20260509210253 71 81 7.0 16.0 0.00 0.00 0.00 43 1008.2
20260509205753 71 105 9.0 12.0 0.00 0.00 0.00 43 1008.2
20260509205247 71 74 8.0 12.0 0.00 0.00 0.00 43 1008.3
20260509204743 71 97 7.0 15.0 0.00 0.00 0.00 43 1008.2
20260509204240 72 96 7.0 17.0 0.00 0.00 0.00 43 1008.2
20260509203736 72 92 8.0 16.0 0.00 0.00 0.00 39 1008.2
20260509203234 74 112 13.0 18.0 0.00 0.00 0.00 39 1008.0
20260509202730 74 94 12.0 15.0 0.00 0.00 0.00 41 1008.1
20260509202226 74 93 11.0 14.0 0.00 0.00 0.00 40 1007.9
20260509201720 73 48 6.0 11.0 0.00 0.00 0.00 40 1007.9
20260509201218 71 80 9.0 11.0 0.00 0.00 0.00 46 1008.0
20260509200715 71 81 4.0 10.0 0.00 0.00 0.00 44 1007.9
20260509200215 71 106 6.0 9.0 0.00 0.00 0.00 45 1008.1
20260509195711 71 102 5.0 5.0 0.00 0.00 0.00 46 1007.9
20260509195206 72 98 4.0 7.0 0.00 0.00 0.00 43 1008.1
20260509194701 73 44 3.0 8.0 0.00 0.00 0.00 40 1008.1
20260509194158 72 99 3.0 8.0 0.00 0.00 0.00 46 1008.2
20260509193654 72 121 4.0 9.0 0.00 0.00 0.00 45 1008.2
20260509193150 73 48 8.0 11.0 0.00 0.00 0.00 42 1008.2
20260509192646 72 78 10.0 14.0 0.00 0.00 0.00 43 1008.3
20260509192141 73 51 12.0 16.0 0.00 0.00 0.00 44 1008.4
20260509191641 72 102 4.0 13.0 0.00 0.00 0.00 43 1008.4
20260509191139 71 88 9.0 15.0 0.00 0.00 0.00 43 1008.5
20260509190635 72 118 10.0 18.0 0.00 0.00 0.00 41 1008.6
20260509190132 71 39 9.0 16.0 0.00 0.00 0.00 44 1008.6
20260509185630 72 45 6.0 11.0 0.00 0.00 0.00 42 1008.7
20260509185125 73 47 6.0 15.0 0.00 0.00 0.00 43 1008.6
20260509184623 72 40 3.0 5.0 0.00 0.00 0.00 41 1008.5
20260509184120 72 59 9.0 10.0 0.00 0.00 0.00 42 1008.7
20260509183616 70 86 6.0 9.0 0.00 0.00 0.00 50 1008.8
20260509183111 70 72 9.0 13.0 0.00 0.00 0.00 44 1008.9
20260509182608 71 42 6.0 12.0 0.00 0.00 0.00 42 1008.9
20260509182105 70 72 6.0 11.0 0.00 0.00 0.00 44 1009.1
20260509181603 70 93 8.0 10.0 0.00 0.00 0.00 46 1009.2
20260509181100 71 89 7.0 16.0 0.00 0.00 0.00 43 1009.2
20260509180555 72 32 6.0 10.0 0.00 0.00 0.00 41 1009.1
20260509180053 71 98 10.0 13.0 0.00 0.00 0.00 44 1008.9
20260509175548 72 63 11.0 15.0 0.00 0.00 0.00 44 1009.1
20260509175046 71 49 5.0 8.0 0.00 0.00 0.00 42 1008.8
20260509174542 72 87 9.0 13.0 0.00 0.00 0.00 43 1009.1
20260509174037 71 54 6.0 12.0 0.00 0.00 0.00 43 1008.9
20260509173532 71 63 6.0 9.0 0.00 0.00 0.00 46 1009.1
20260509173029 69 88 6.0 10.0 0.00 0.00 0.00 45 1009.3
20260509172526 69 49 5.0 12.0 0.00 0.00 0.00 46 1009.4
20260509172021 69 85 9.0 14.0 0.00 0.00 0.00 46 1009.4
20260509171518 69 68 7.0 13.0 0.00 0.00 0.00 45 1009.4
20260509171015 69 62 6.0 6.0 0.00 0.00 0.00 44 1009.6
20260509170510 70 114 8.0 13.0 0.00 0.00 0.00 46 1009.7
20260509170006 71 85 11.0 16.0 0.00 0.00 0.00 44 1009.6
20260509165504 71 51 9.0 16.0 0.00 0.00 0.00 42 1009.7
20260509165000 71 58 9.0 17.0 0.00 0.00 0.00 44 1009.8
20260509164457 71 94 7.0 16.0 0.00 0.00 0.00 44 1009.8
20260509163952 70 36 4.0 16.0 0.00 0.00 0.00 45 1009.7
20260509163450 69 54 5.0 15.0 0.00 0.00 0.00 49 1009.4
20260509162949 68 87 6.0 10.0 0.00 0.00 0.00 49 1009.6
20260509162448 69 60 11.0 17.0 0.00 0.00 0.00 45 1009.7
20260509161944 69 92 9.0 19.0 0.00 0.00 0.00 52 1009.8
20260509161440 67 67 8.0 15.0 0.00 0.00 0.00 48 1010.0
20260509160935 67 123 7.0 10.0 0.00 0.00 0.00 50 1009.9
20260509160432 66 50 6.0 14.0 0.00 0.00 0.00 48 1009.9
20260509155927 67 59 11.0 14.0 0.00 0.00 0.00 51 1010.0
20260509155424 66 73 6.0 11.0 0.00 0.00 0.00 51 1009.8
20260509154920 66 116 10.0 14.0 0.00 0.00 0.00 53 1009.7
20260509154417 67 77 6.0 12.0 0.00 0.00 0.00 52 1010.0
20260509153914 67 95 5.0 7.0 0.00 0.00 0.00 53 1010.0
20260509153411 67 45 6.0 8.0 0.00 0.00 0.00 52 1010.1
20260509152908 66 51 4.0 11.0 0.00 0.00 0.00 51 1010.1
20260509152403 66 83 8.0 13.0 0.00 0.00 0.00 53 1010.1
20260509151901 66 67 5.0 11.0 0.00 0.00 0.00 53 1010.2
20260509151356 68 61 9.0 13.0 0.00 0.00 0.00 50 1010.1
20260509150855 68 75 9.0 13.0 0.00 0.00 0.00 53 1010.0
20260509150353 67 60 7.0 8.0 0.00 0.00 0.00 53 1010.2
20260509145850 66 69 5.0 11.0 0.00 0.00 0.00 52 1010.2
20260509145350 66 61 6.0 13.0 0.00 0.00 0.00 54 1010.4
20260509144846 65 73 6.0 10.0 0.00 0.00 0.00 58 1010.4
20260509144343 64 70 6.0 9.0 0.00 0.00 0.00 56 1010.1
20260509143840 64 83 8.0 11.0 0.00 0.00 0.00 56 1010.3
20260509143338 64 101 4.0 10.0 0.00 0.00 0.00 56 1010.5
20260509142834 64 100 5.0 9.0 0.00 0.00 0.00 59 1010.1
20260509142330 63 140 4.0 4.0 0.00 0.00 0.00 59 1010.1
20260509141826 62 101 3.0 5.0 0.00 0.00 0.00 59 1010.1
20260509141327 62 120 4.0 6.0 0.00 0.00 0.00 58 1010.3
20260509140819 62 82 4.0 5.0 0.00 0.00 0.00 59 1010.2
20260509140317 62 134 5.0 5.0 0.00 0.00 0.00 61 1010.3
20260509135815 60 30 2.0 3.0 0.00 0.00 0.00 63 1010.2
20260509135312 59 94 3.0 4.0 0.00 0.00 0.00 64 1010.7
20260509134809 58 136 0.0 2.0 0.00 0.00 0.00 66 1010.4
20260509134306 58 110 0.0 2.0 0.00 0.00 0.00 64 1010.5
20260509133803 59 224 0.0 2.0 0.00 0.00 0.00 66 1010.7
20260509133259 58 92 0.0 2.0 0.00 0.00 0.00 67 1010.9
20260509132758 57 93 4.0 4.0 0.00 0.00 0.00 70 1011.1
20260509132257 55 75 1.0 2.0 0.00 0.00 0.00 71 1011.0
20260509131753 54 153 1.0 3.0 0.00 0.00 0.00 71 1011.1
20260509131250 53 166 2.0 2.0 0.00 0.00 0.00 73 1011.1
20260509130746 53 89 0.0 2.0 0.00 0.00 0.00 76 1011.4
20260509130242 52 135 0.0 2.0 0.00 0.00 0.00 80 1011.6
20260509125738 51 59 3.0 4.0 0.00 0.00 0.00 82 1011.5
20260509125236 50 82 1.0 2.0 0.00 0.00 0.00 84 1011.7
20260509124732 50 98 2.0 2.0 0.00 0.00 0.00 85 1011.6
20260509124228 49 107 2.0 3.0 0.00 0.00 0.00 86 1011.6
20260509123727 48 92 2.0 3.0 0.00 0.00 0.00 87 1011.7
20260509123224 48 112 2.0 3.0 0.00 0.00 0.00 88 1011.8
20260509122719 47 101 2.0 3.0 0.00 0.00 0.00 89 1011.8
20260509122216 47 114 2.0 3.0 0.00 0.00 0.00 91 1011.7
20260509121713 47 99 2.0 3.0 0.00 0.00 0.00 92 1011.8
20260509121211 46 107 2.0 3.0 0.00 0.00 0.00 93 1011.6
20260509120709 46 95 1.0 2.0 0.00 0.00 0.00 94 1011.5
20260509120206 46 107 2.0 3.0 0.00 0.00 0.00 95 1011.7
20260509115704 45 107 2.0 3.0 0.00 0.00 0.00 96 1011.7
20260509115201 44 97 2.0 2.0 0.00 0.00 0.00 96 1011.8
20260509114659 43 104 2.0 3.0 0.00 0.00 0.00 96 1011.7
20260509114158 43 95 2.0 3.0 0.00 0.00 0.00 97 1011.7
20260509113656 42 107 3.0 3.0 0.00 0.00 0.00 97 1011.6
20260509113152 42 94 2.0 3.0 0.00 0.00 0.00 97 1011.5
20260509112649 42 99 2.0 3.0 0.00 0.00 0.00 97 1011.4
20260509112146 41 93 2.0 2.0 0.00 0.00 0.00 97 1011.5
20260509111643 41 97 2.0 3.0 0.00 0.00 0.00 96 1011.5
20260509111140 41 93 2.0 3.0 0.00 0.00 0.00 96 1011.5
20260509110637 40 92 2.0 3.0 0.00 0.00 0.00 96 1011.4
20260509110134 40 103 2.0 2.0 0.00 0.00 0.00 96 1011.5
20260509105632 40 92 2.0 3.0 0.00 0.00 0.00 96 1011.4
20260509105130 39 73 3.0 4.0 0.00 0.00 0.00 96 1011.2
20260509104627 39 82 3.0 4.0 0.00 0.00 0.00 96 1011.2
20260509104123 39 102 2.0 3.0 0.00 0.00 0.00 96 1011.0
20260509103621 39 120 3.0 4.0 0.00 0.00 0.00 96 1011.1
20260509103119 39 105 3.0 3.0 0.00 0.00 0.00 95 1011.2
20260509102616 39 115 3.0 3.0 0.00 0.00 0.00 95 1011.1
20260509102113 39 104 3.0 3.0 0.00 0.00 0.00 95 1011.5
20260509101609 39 67 2.0 3.0 0.00 0.00 0.00 95 1011.4
20260509101106 39 72 2.0 3.0 0.00 0.00 0.00 95 1011.5
20260509100603 39 93 2.0 3.0 0.00 0.00 0.00 96 1011.2
20260509100101 39 97 2.0 3.0 0.00 0.00 0.00 96 1011.5
20260509095557 39 79 2.0 3.0 0.00 0.00 0.00 95 1011.4
20260509095055 39 98 2.0 2.0 0.00 0.00 0.00 95 1011.4
20260509094550 39 76 1.0 2.0 0.00 0.00 0.00 95 1011.4
20260509094048 39 110 2.0 3.0 0.00 0.00 0.00 95 1011.4
20260509093546 39 107 3.0 3.0 0.00 0.00 0.00 95 1011.4
20260509093043 39 101 2.0 3.0 0.00 0.00 0.00 95 1011.4
20260509092541 39 67 3.0 4.0 0.00 0.00 0.00 95 1011.6
20260509092040 39 87 2.0 4.0 0.00 0.00 0.00 95 1011.4
20260509091537 39 113 3.0 3.0 0.00 0.00 0.00 94 1011.5
20260509091033 39 96 2.0 3.0 0.00 0.00 0.00 95 1011.6
20260509090531 39 100 2.0 3.0 0.00 0.00 0.00 95 1011.7
20260509090028 39 107 1.0 2.0 0.00 0.00 0.00 94 1011.6
20260509085525 39 113 2.0 3.0 0.00 0.00 0.00 94 1011.7
20260509085021 39 83 2.0 2.0 0.00 0.00 0.00 94 1011.5
20260509084518 39 96 1.0 2.0 0.00 0.00 0.00 94 1011.5
20260509084015 39 101 2.0 2.0 0.00 0.00 0.00 94 1011.6
20260509083513 39 68 2.0 4.0 0.00 0.00 0.00 94 1011.5
20260509083009 39 49 4.0 4.0 0.00 0.00 0.00 93 1011.7
20260509082507 39 78 2.0 2.0 0.00 0.00 0.00 93 1011.6
20260509082004 39 119 0.0 2.0 0.00 0.00 0.00 93 1011.6